This is the latest recevied weather packets stored in our database for station/object AI5YA-13. If no packets are shown the sender has not sent any weather packets the latest 10 day(s).
| Time | Temp. | Humidity | Pressure | Rain* | Wind** | Luminosity | Snow |
|---|---|---|---|---|---|---|---|
| 1777824084 | 19.44° C | 51% | 1022.3 hPa | 0 mm | - | 686 W/m² | - |
| 1777823781 | 19.44° C | 50% | 1022.4 hPa | 0 mm | - | 655 W/m² | - |
| 1777823478 | 19.44° C | 52% | 1022.6 hPa | 0 mm | - | 648 W/m² | - |
| 1777823175 | 19.44° C | 52% | 1022.4 hPa | 0 mm | - | 632 W/m² | - |
| 1777822873 | 19.44° C | 53% | 1022.4 hPa | 0 mm | - | 596 W/m² | - |
| 1777822571 | 18.89° C | 53% | 1022.6 hPa | 0 mm | - | 558 W/m² | - |
| 1777822268 | 18.89° C | 53% | 1022.7 hPa | 0 mm | - | 535 W/m² | - |
| 1777821965 | 18.89° C | 55% | 1022.7 hPa | 0 mm | - | 496 W/m² | - |
| 1777821664 | 18.33° C | 55% | 1022.9 hPa | 0 mm | - | 474 W/m² | - |
| 1777821361 | 18.33° C | 55% | 1022.6 hPa | 0 mm | - | 491 W/m² | - |
| 1777821057 | 18.33° C | 55% | 1022.6 hPa | 0 mm | - | 454 W/m² | - |
| 1777820754 | 17.78° C | 56% | 1023 hPa | 0 mm | - | 447 W/m² | - |
| 1777820450 | 17.78° C | 57% | 1022.7 hPa | 0 mm | - | 376 W/m² | - |
| 1777820148 | 17.22° C | 58% | 1022.7 hPa | 0 mm | - | 350 W/m² | - |
| 1777819845 | 17.22° C | 58% | 1022.7 hPa | 0 mm | - | 317 W/m² | - |
| 1777819542 | 17.22° C | 59% | 1022.7 hPa | 0 mm | - | 270 W/m² | - |
| 1777819240 | 17.22° C | 60% | 1023 hPa | 0 mm | - | 259 W/m² | - |
| 1777818937 | 17.22° C | 60% | 1023 hPa | 0 mm | - | 251 W/m² | - |
| 1777818633 | 16.67° C | 61% | 1022.9 hPa | 0 mm | - | 242 W/m² | - |
| 1777818331 | 16.67° C | 62% | 1022.7 hPa | 0 mm | - | 250 W/m² | - |
| 1777818026 | 16.11° C | 63% | 1022.7 hPa | 0 mm | - | 248 W/m² | - |
| 1777817724 | 16.11° C | 63% | 1022.5 hPa | 0 mm | - | 104 W/m² | - |
| 1777817421 | 16.11° C | 64% | 1022.6 hPa | 0 mm | - | 79 W/m² | - |
| 1777817117 | 16.11° C | 65% | 1022.6 hPa | 0 mm | - | 71 W/m² | - |
| 1777816815 | 15.56° C | 66% | 1022.6 hPa | 0 mm | - | 67 W/m² | - |
* Rain latest hour (hover to see other rain measurements)
** Current wind speed in m/s (hover to see current wind gust speed)